This demonstration page uses our WeatherBlox Daily Observations layout. Learn more.

Left ArrowRight Arrow

44.8408, -93.29828

Hourly Observations for June 30, 2022

Temp ( °F °C ) Dew Point ( °F °C ) Humidity (%) Winds ( mph kmh ) Pressure ( in mb ) Visibility ( mi km ) Precip ( " mm )
12:53 am 00:53 Partly Cloudy 84 28.9 59 15 43 43 SSW 18 30 29.78 1009 10 16 0.00 0.00
1:53 am 01:53 Partly Cloudy 84 28.9 59 15 43 43 SW 18 30 29.78 1008 10 16 0.00 0.00
2:53 am 02:53 Partly Cloudy 84 28.9 57 13.9 40 40 SW 22 35 29.78 1008 10 16 0.00 0.00
3:53 am 03:53 Partly Cloudy 83 28.3 56 13.3 40 40 SW 22 35 29.78 1009 10 16 0.00 0.00
4:25 am 04:25 Cloudy with Nearby Thunderstorms 77 25 61 16.1 58 58 SW 24 39 29.79 1009 7 11 0.00 0.00
4:32 am 04:32 Windy with Storms Likely 74 23.3 62 16.7 67 67 WSW 23 37 29.85 1011 6 10 0.01 0.25
4:53 am 04:53 Cloudy with Nearby Thunderstorms 72 22.2 64 17.8 76 76 WSW 7 11 29.84 1010 7 11 0.09 2.29
5:07 am 05:07 Cloudy 72 22.2 64 17.8 76 76 VRB 5 7 29.82 1010 10 16 0.00 0.00
5:53 am 05:53 Cloudy 73 22.8 62 16.7 69 69 S 10 17 29.82 1010 10 16 0.00 0.00
6:53 am 06:53 Cloudy 73 22.8 62 16.7 69 69 S 8 13 29.83 1010 10 16 0.00 0.00
7:53 am 07:53 Mostly Cloudy 73 22.8 63 17.2 71 71 S 10 17 29.83 1010 10 16 0.00 0.00
8:03 am 08:03 Mostly Cloudy with Light Rain 72 22.2 64 17.8 76 76 SSE 20 31 29.75 1007 8 13 0.01 0.25
8:53 am 08:53 Mostly Cloudy 73 22.8 63 17.2 71 71 SSW 6 9 29.78 1008 10 16 0.01 0.25
9:53 am 09:53 Partly Cloudy 77 25 62 16.7 60 60 SSW 10 17 29.78 1009 10 16 0.00 0.00
10:53 am 10:53 Mostly Sunny 80 26.7 61 16.1 52 52 SW 10 17 29.77 1008 10 16 0.00 0.00
11:53 am 11:53 Mostly Sunny 83 28.3 60 15.6 46 46 WSW 10 17 29.78 1008 10 16 0.00 0.00
12:53 pm 12:53 Mostly Sunny 85 29.4 62 16.7 46 46 SW 12 19 29.78 1008 10 16 0.00 0.00
1:53 pm 13:53 Partly Cloudy 87 30.6 62 16.7 43 43 SW 7 11 29.77 1008 10 16 0.00 0.00
2:53 pm 14:53 Mostly Cloudy 88 31.1 61 16.1 40 40 NW 7 11 29.77 1008 10 16 0.00 0.00
3:53 pm 15:53 Mostly Cloudy 92 33.3 60 15.6 34 34 WNW 8 13 29.77 1008 10 16 0.00 0.00
4:53 pm 16:53 Mostly Cloudy 90 32.2 61 16.1 38 38 NNW 16 26 29.78 1008 10 16 0.00 0.00
5:53 pm 17:53 Mostly Cloudy 87 30.6 56 13.3 35 35 NNW 14 22 29.80 1009 10 16 0.00 0.00
6:53 pm 18:53 Mostly Cloudy 85 29.4 53 11.7 33 33 NW 14 22 29.82 1010 10 16 0.00 0.00
7:53 pm 19:53 Mostly Cloudy 82 27.8 53 11.7 37 37 NW 12 19 29.84 1011 10 16 0.00 0.00
8:53 pm 20:53 Partly Cloudy 80 26.7 53 11.7 39 39 NNW 16 26 29.85 1011 10 16 0.00 0.00
9:53 pm 21:53 Mostly Clear 78 25.6 50 10 37 37 NNW 13 20 29.88 1012 10 16 0.00 0.00
10:53 pm 22:53 Mostly Clear 75 23.9 51 10.6 43 43 NW 6 9 29.91 1013 10 16 0.00 0.00
11:53 pm 23:53 Mostly Clear 73 22.8 52 11.1 48 48 NNW 6 9 29.93 1013 10 16 0.00 0.00

Powered by AerisWeather